Regional Weather Roundup
Issued by NWS State College, PA

Home | Current Version | Previous Version | Graphics & Text | Print | Product List | Glossary On
Versions: 1 2 3 4 5 6 7 8 9 10 11 12 13 14 15 16 17 18 19 20 21 22 23 24 25 26 27 28 29 30 31 32 33 34 35 36 37 38 39 40 41 42 43 44 45 46 47 48 49 50
000
ASUS41 KCTP 291810
RWRCTP

REGIONAL WEATHER ROUNDUP
NATIONAL WEATHER SERVICE STATE COLLEGE PA
100 PM EST THU JAN 29 2015

Note: "fair" indicates few or no clouds below 12,000 feet with no
significant weather and/or obstructions to visibility.

* = STATION THAT DOES NOT REPORT PRECIPITATION /E.G. RAIN...SNOW...ETC/
    THUNDER OR FOG.

PAZ002>004-007>009-013>016-020>023-029>032-291900-
WESTERN PENNSYLVANIA

CITY           SKY/WX    TMP DP  RH WIND       PRES   REMARKS
ERIE           SNOW      32  28  85 S18       29.77F VSB 1/4
MEADVILLE      SNOW      30  26  85 VRB7      29.78F VSB 1/4
FRANKLIN*      CLOUDY    27  23  86 S12       29.83F VSB 1
NEW CASTLE     LGT SNOW  30  28  93 S5        29.84F VSB 3/4
BEAVER COUNTY  LGT SNOW  32  28  86 S8        29.83F
BUTLER*        CLOUDY    34  27  75 S9        29.86F
PITTSBURGH INT LGTSLEET  33  29  85 S6        29.85F
PITTSBURGH     FRZ RAIN  33  24  69 S9        29.85F
INDIANA*       PTSUNNY   36  18  48 S8G15     29.94F HAZE
LATROBE        LGT RAIN  41  25  52 S10       29.92F
WASHINGTON CO* CLOUDY    36  28  75 S7        29.88F
$$

PAZ004>006-010>012-017>019-024>028-033>037-041-042-045-046-049>053-291900-
CENTRAL PENNSYLVANIA

CITY           SKY/WX    TMP DP  RH WIND       PRES   REMARKS
BRADFORD       CLOUDY    29   3  33 S8        29.83F
DUBOIS         LGT SNOW  29  10  45 S8        29.87F
CLEARFIELD     CLOUDY    29   6  38 VRB3      29.95F
JOHNSTOWN      CLOUDY    26   9  48 SE10      29.91F
ALTOONA        CLOUDY    28   7  41 S9        30.00F
STATE COLLEGE  CLOUDY    27   5  39 SW12      30.01F
WILLIAMSPORT   CLOUDY    25   5  42 NE7       30.10F
SELINSGROVE    CLOUDY    22   9  57 CALM      30.13F
FT INDIANTOWN  CLOUDY    26   7  45 NE6       30.17F
CAPITAL CITY   CLOUDY    26  11  52 E8        30.17F
HARRISBURG     CLOUDY    28  13  53 SE6       30.17F
YORK           CLOUDY    31   9  39 S8        30.16F
$$

PAZ038>040-043-044-047-048-054-055-060>062-067>071-291900-
EASTERN PENNSYLVANIA

CITY           SKY/WX    TMP DP  RH WIND       PRES   REMARKS
SCRANTON       CLOUDY    24   9  52 CALM      30.09F HAZE
MOUNT POCONO   CLOUDY    23   1  38 SE9       30.06F WCI  13
ALLENTOWN      CLOUDY    26   9  48 NE5       30.20F
QUAKERTOWN*    CLOUDY    28   3  34 SE6       30.20F
READING        CLOUDY    29   5  36 SE7       30.18F
LANCASTER      CLOUDY    28  14  55 CALM      30.18F
COATESVILLE    CLOUDY    32   9  37 SE6       30.18F
POTTSTOWN      CLOUDY    30   5  34 VRB3      30.22F
BLUE BELL      CLOUDY    32   9  37 CALM      30.20F
DOYLESTOWN     CLOUDY    26   4  38 VRB3      30.20F
WILLOW GROVE   NOT AVBL
NORTH PHILA    CLOUDY    31   7  36 SE7       30.24F
PHILADELPHIA   CLOUDY    33   7  33 S5        30.24F
$$



USA.gov is the U.S. government's official web portal to all federal, state and local government web resources and services.